QPF
0.00 0.00 0.00 0.00 0.00 0.00 0.00 0.00 0.00 0.00 0.00 0.00 0.00 0.00 0.00 0.00 0.00 0.00 0.00 0.00 0.00 0.00 0.00 0.00 0.00 0.00 0.00 0.00 0.00 0.00 0.00 0.00 0.00 0.00 0.00 0.00 0.00 0.00 0.00 0.00 0.00 0.00 0.00 0.00
0.00 0.00 0.00 0.00 0.00 0.00 0.00 0.00 0.00 0.00 0.00 0.00 0.00 0.00 0.00 0.00 0.00 0.00 0.00 0.00 0.00 0.00 0.00 0.00 0.00 0.00 0.00 0.00 0.00 0.00 0.00 0.00 0.00 0.00 0.00 0.00 0.00 0.00 0.00 0.00 0.00 0.00 0.00 0.00
0.00 0.00 0.00 0.00 0.00 0.00 0.00 0.00 0.00 0.00 0.00 0.00 0.00 0.00 0.00 0.00 0.00 0.00 0.00 0.00 0.00 0.00 0.00 0.00 0.00 0.00 0.00 0.00 0.00 0.00 0.00 0.00 0.00 0.00 0.00 0.00 0.00 0.00 0.00 0.00 0.00 0.00 0.00 0.00
0.00 0.00 0.00 0.00 0.00 0.00 0.00 0.00 0.00 0.00 0.00 0.00 0.00 0.00 0.00 0.00 0.00 0.00 0.00 0.00 0.00 0.00 0.00 0.00 0.00 0.00 0.00 0.00 0.00 0.00 0.00 0.00 0.00 0.00 0.00 0.00 0.00 0.00 0.00 0.00 0.00 0.00 0.00 0.00
0.00 0.00 0.00 0.00 0.00 0.00 0.00 0.00 0.00 0.00 0.00 0.00 0.00 0.00 0.00 0.00 0.00 0.00 0.00 0.00 0.00 0.00 0.00 0.00 0.00 0.00 0.00 0.00 0.00 0.00 0.00 0.00 0.00 0.00 0.00 0.00 0.00 0.00 0.00 0.00 0.00 0.00 0.00 0.00
0.00 0.00 0.00 0.00 0.00 0.00 0.00 0.00 0.00 0.00 0.00 0.00 0.00 0.00 0.00 0.00 0.00 0.00 0.00 0.00 0.00 0.00 0.00 0.00 0.00 0.00 0.00 0.00 0.00 0.00 0.00 0.00 0.00 0.00 0.00 0.00 0.00 0.00 0.00 0.00 0.00 0.00 0.00 0.00
0.00 0.00 0.00 0.00 0.00 0.00 0.00 0.00 0.00 0.00 0.00 0.00 0.00 0.00 0.00 0.00 0.00 0.00 0.00 0.00 0.00 0.00 0.00 0.00 0.00 0.00 0.00 0.00 0.00 0.00 0.00 0.00 0.00 0.00 0.00 0.00 0.00 0.00 0.00 0.00 0.00 0.00 0.00 0.00
0.00 0.00 0.00 0.00 0.00 0.00 0.00 0.00 0.00 0.00 0.00 0.00 0.00 0.00 0.00 0.00 0.00 0.00 0.00 0.00 0.00 0.00 0.00 0.00 0.00 0.00 0.00 0.00 0.00 0.00 0.00 0.00 0.00 0.00 0.00 0.00 0.00 0.00 0.00 0.00 0.00 0.00 0.00 0.00
0.00 0.00 0.00 0.00 0.00 0.00 0.00 0.00 0.00 0.00 0.00 0.00 0.00 0.00 0.00 0.00 0.00 0.00 0.00 0.00 0.00 0.00 0.00 0.00 0.00 0.00 0.00 0.00 0.00 0.00 0.00 0.00 0.00 0.00 0.00 0.00 0.00 0.00 0.00 0.00 0.00 0.00 0.00 0.00
0.00 0.00 0.00 0.00 0.00 0.00 0.00 0.00 0.00 0.00 0.00 0.00 0.00 0.00 0.00 0.00 0.00 0.00 0.00 0.00 0.00 0.00 0.00 0.00 0.00 0.00 0.00 0.00 0.00 0.00 0.00 0.00 0.00 0.00 0.00 0.00 0.00 0.00 0.00 0.00 0.00 0.00 0.00 0.00
0.00 0.01 0.00 0.00 0.00 0.00 0.00 0.00 0.00 0.00 0.00 0.00 0.00 0.00 0.00 0.00 0.00 0.00 0.00 0.00 0.00 0.00 0.00 0.00 0.00 0.00 0.00 0.00 0.00 0.00 0.00 0.00 0.00 0.00 0.00 0.00 0.00 0.00 0.00 0.00 0.00 0.00 0.00 0.00
0.01 0.01 0.00 0.00 0.00 0.00 0.00 0.00 0.00 0.00 0.00 0.00 0.00 0.00 0.00 0.00 0.00 0.00 0.00 0.00 0.00 0.00 0.00 0.00 0.00 0.00 0.00 0.00 0.00 0.00 0.00 0.00 0.00 0.00 0.00 0.00 0.00 0.00 0.00 0.00 0.00 0.00 0.00 0.00
0.01 0.02 0.01 0.00 0.00 0.00 0.00 0.00 0.00 0.00 0.00 0.00 0.00 0.00 0.00 0.00 0.00 0.00 0.00 0.00 0.00 0.00 0.00 0.00 0.00 0.00 0.00 0.00 0.00 0.00 0.00 0.00 0.00 0.00 0.00 0.00 0.00 0.00 0.00 0.00 0.00 0.00 0.00 0.00
0.00 0.01 0.01 0.00 0.00 0.00 0.00 0.00 0.00 0.01 0.00 0.00 0.00 0.00 0.00 0.00 0.00 0.00 0.00 0.00 0.00 0.00 0.00 0.00 0.00 0.00 0.00 0.00 0.00 0.00 0.00 0.00 0.00 0.00 0.00 0.00 0.00 0.00 0.00 0.00 0.00 0.00 0.00 0.00
0.00 0.00 0.00 0.00 0.00 0.01 0.00 0.00 0.00 0.00 0.00 0.01 0.00 0.00 0.00 0.00 0.00 0.00 0.00 0.00 0.00 0.00 0.00 0.00 0.00 0.00 0.00 0.00 0.00 0.00 0.00 0.00 0.00 0.00 0.00 0.00 0.00 0.00 0.00 0.00 0.00 0.00 0.00 0.00
0.00 0.00 0.00 0.00 0.00 0.00 0.00 0.00 0.00 0.00 0.00 0.00 0.00 0.00 0.00 0.00 0.00 0.00 0.00 0.00 0.00 0.00 0.00 0.00 0.00 0.00 0.00 0.00 0.00 0.00 0.00 0.00 0.00 0.00 0.00 0.00 0.00 0.00 0.00 0.00 0.00 0.00 0.00 0.00
0.00 0.00 0.00 0.00 0.00 0.00 0.00 0.00 0.00 0.00 0.00 0.00 0.00 0.00 0.00 0.00 0.00 0.00 0.00 0.00 0.00 0.00 0.00 0.00 0.00 0.00 0.00 0.00 0.00 0.00 0.00 0.00 0.00 0.00 0.00 0.00 0.00 0.00 0.00 0.00 0.00 0.00 0.00 0.00
0.00 0.00 0.00 0.00 0.00 0.00 0.00 0.00 0.00 0.00 0.00 0.00 0.00 0.00 0.00 0.00 0.00 0.00 0.00 0.00 0.00 0.00 0.00 0.00 0.00 0.00 0.00 0.00 0.00 0.00 0.00 0.00 0.00 0.00 0.00 0.00 0.00 0.00 0.00 0.00 0.00 0.00 0.00 0.00
0.00 0.00 0.00 0.00 0.00 0.00 0.00 0.00 0.00 0.00 0.00 0.00 0.00 0.00 0.00 0.00 0.00 0.00 0.00 0.00 0.00 0.00 0.00 0.00 0.00 0.00 0.00 0.00 0.00 0.00 0.00 0.00 0.00 0.00 0.00 0.00 0.00 0.00 0.00 0.00 0.00 0.00 0.00 0.00
0.00 0.00 0.01 0.02 0.02 0.01 0.00 0.00 0.00 0.00 0.01 0.00 0.00 0.01 0.01 0.00 0.00 0.00 0.00 0.00 0.00 0.00 0.00 0.00 0.00 0.00 0.00 0.00 0.00 0.00 0.00 0.00 0.00 0.00 0.00 0.00 0.00 0.00 0.00 0.00 0.00 0.00 0.00 0.00
0.00 0.00 0.00 0.00 0.01 0.01 0.00 0.00 0.00 0.01 0.00 0.01 0.02 0.03 0.02 0.01 0.00 0.00 0.00 0.00 0.00 0.00 0.00 0.00 0.00 0.00 0.00 0.00 0.00 0.00 0.00 0.00 0.00 0.00 0.00 0.00 0.00 0.00 0.00 0.00 0.00 0.00 0.00 0.00
0.00 0.00 0.00 0.00 0.00 0.00 0.00 0.00 0.00 0.00 0.00 0.00 0.01 0.01 0.01 0.00 0.00 0.00 0.00 0.00 0.00 0.00 0.00 0.00 0.00 0.00 0.00 0.00 0.00 0.00 0.00 0.00 0.00 0.00 0.00 0.00 0.00 0.00 0.00 0.00 0.00 0.00 0.00 0.00
0.00 0.00 0.00 0.00 0.00 0.00 0.01 0.02 0.02 0.01 0.00 0.00 0.00 0.00 0.00 0.00 0.00 0.00 0.00 0.00 0.00 0.00 0.00 0.00 0.00 0.00 0.00 0.00 0.00 0.00 0.00 0.00 0.00 0.00 0.00 0.00 0.00 0.00 0.00 0.00 0.00 0.00 0.00 0.00
0.00 0.00 0.00 0.00 0.00 0.00 0.00 0.00 0.00 0.00 0.00 0.00 0.00 0.00 0.00 0.00 0.00 0.00 0.00 0.00 0.00 0.00 0.00 0.00 0.00 0.00 0.00 0.00 0.00 0.00 0.00 0.00 0.00 0.00 0.00 0.00 0.00 0.00 0.00 0.00 0.00 0.00 0.00 0.00
0.00 0.00 0.01 0.00 0.00 0.00 0.00 0.00 0.00 0.00 0.00 0.00 0.00 0.00 0.00 0.00 0.00 0.00 0.00 0.00 0.00 0.00 0.00 0.00 0.00 0.00 0.00 0.00 0.00 0.00 0.00 0.00 0.00 0.00 0.00 0.00 0.00 0.00 0.00 0.00 0.00 0.00 0.00 0.00
0.00 0.00 0.00 0.00 0.00 0.00 0.00 0.00 0.00 0.00 0.00 0.00 0.00 0.00 0.00 0.00 0.01 0.01 0.01 0.00 0.00 0.00 0.00 0.00 0.00 0.00 0.00 0.00 0.00 0.00 0.00 0.00 0.00 0.00 0.00 0.00 0.00 0.00 0.00 0.00 0.00 0.00 0.00 0.00
MSLP
1008.72 1009.42 1009.40 1009.58 1010.11 1010.51 1010.45 1010.28 1009.95 1008.86 1007.82 1007.87 1007.75 1007.71 1007.44 1007.21 1008.24 1008.73 1008.95 1009.38 1009.62 1009.49 1010.21 1011.14 1011.95 1012.70 1013.65 1014.47 1015.15 1015.55 1016.21 1016.96 1017.39 1018.33 1019.25 1019.95 1020.50 1020.95 1021.21 1021.28 1021.51 1021.74 1022.01 1022.30
1009.17 1008.85 1008.71 1009.15 1009.65 1010.40 1010.55 1010.29 1009.54 1008.65 1007.69 1007.90 1007.38 1007.08 1006.72 1006.75 1006.92 1006.90 1007.25 1007.98 1008.33 1009.18 1010.08 1011.07 1011.87 1012.62 1013.13 1013.83 1014.49 1015.11 1015.73 1016.56 1017.11 1017.63 1018.52 1019.31 1020.23 1020.92 1021.12 1021.43 1021.70 1021.85 1022.06 1022.38
1008.11 1008.14 1008.07 1008.74 1009.26 1009.91 1009.86 1009.96 1009.43 1009.03 1007.70 1007.58 1007.23 1006.31 1005.92 1005.60 1005.71 1005.74 1005.98 1006.30 1007.26 1007.97 1008.70 1009.93 1010.92 1011.72 1012.82 1013.41 1013.96 1014.73 1015.44 1016.10 1016.74 1017.31 1018.19 1019.27 1020.23 1020.92 1021.49 1021.87 1022.13 1022.35 1022.34 1022.55
1007.93 1007.59 1007.88 1008.47 1008.78 1008.93 1009.08 1008.83 1008.92 1008.86 1008.70 1008.18 1007.45 1005.68 1005.13 1004.98 1004.94 1005.13 1004.89 1005.29 1005.68 1006.41 1007.56 1008.69 1009.76 1010.86 1011.62 1012.63 1013.59 1014.18 1014.98 1015.67 1016.35 1016.91 1017.59 1018.44 1019.21 1020.23 1020.91 1021.31 1021.73 1022.18 1022.42 1022.81
1006.80 1006.87 1007.39 1007.75 1007.70 1008.23 1008.22 1008.23 1008.61 1008.83 1008.90 1008.37 1007.56 1007.08 1004.05 1004.02 1004.31 1004.11 1003.98 1004.15 1004.52 1004.92 1005.78 1006.83 1007.69 1008.88 1010.40 1011.68 1012.75 1013.76 1014.55 1015.36 1015.95 1016.52 1016.99 1017.85 1018.84 1019.56 1020.39 1021.21 1021.74 1022.17 1022.59 1022.75
1007.13 1006.99 1007.04 1007.17 1007.33 1007.62 1008.00 1008.46 1008.54 1008.63 1008.97 1007.81 1007.35 1006.88 1002.85 1003.34 1002.88 1002.78 1002.90 1003.25 1003.66 1004.28 1005.06 1006.31 1007.59 1008.93 1009.91 1011.13 1012.09 1012.96 1013.83 1014.70 1015.41 1015.99 1016.62 1017.15 1018.14 1019.31 1020.42 1021.26 1021.76 1022.31 1022.52 1022.85
1007.79 1007.24 1007.19 1007.34 1007.56 1007.48 1008.09 1008.91 1009.39 1009.34 1009.18 1006.82 1006.17 1005.68 1003.22 1002.65 1002.06 1001.94 1002.01 1002.41 1002.82 1003.73 1004.88 1005.80 1006.91 1007.95 1009.12 1009.99 1011.06 1012.14 1013.12 1014.12 1014.94 1015.58 1016.25 1016.79 1017.55 1018.46 1019.48 1020.42 1021.18 1021.88 1022.35 1022.77
1009.09 1008.42 1007.94 1007.78 1007.40 1007.25 1007.37 1008.02 1009.06 1009.02 1008.60 1007.59 1006.66 1004.22 1003.03 1002.43 1002.36 1002.29 1002.42 1002.63 1002.82 1003.37 1003.94 1004.72 1005.51 1006.73 1008.01 1009.19 1010.33 1011.14 1012.17 1013.36 1014.35 1015.10 1015.83 1016.48 1017.17 1018.06 1018.91 1019.73 1020.68 1021.37 1022.04 1022.54
1010.81 1009.95 1009.21 1008.62 1008.48 1008.04 1007.52 1007.64 1007.80 1008.69 1008.98 1008.79 1006.57 1004.47 1003.47 1002.77 1002.95 1003.38 1003.72 1004.00 1004.19 1003.98 1003.67 1003.93 1005.54 1006.47 1007.73 1008.85 1009.71 1010.50 1011.72 1012.79 1013.83 1014.61 1015.37 1016.13 1016.90 1017.72 1018.55 1019.47 1020.45 1021.11 1021.77 1022.23
1012.46 1011.76 1010.43 1009.80 1008.99 1008.25 1008.25 1008.29 1008.44 1009.25 1009.47 1008.97 1006.72 1005.96 1005.20 1005.16 1005.38 1005.31 1005.25 1005.08 1004.75 1004.40 1004.19 1004.38 1005.08 1006.09 1007.32 1008.42 1009.38 1010.38 1011.16 1012.01 1013.09 1014.19 1015.15 1015.79 1016.44 1017.26 1018.15 1019.33 1020.17 1020.88 1021.54 1022.07
1013.45 1013.12 1011.90 1011.14 1010.40 1010.02 1009.76 1010.05 1010.11 1009.97 1010.13 1009.56 1008.47 1006.96 1006.65 1006.66 1006.79 1006.77 1006.67 1006.46 1005.96 1005.27 1005.32 1005.57 1006.18 1006.90 1007.66 1008.46 1009.06 1009.96 1010.87 1011.78 1012.78 1013.54 1014.55 1015.59 1016.50 1017.07 1017.82 1018.86 1019.81 1020.68 1021.38 1022.03
1013.02 1013.33 1013.16 1012.35 1011.29 1010.95 1010.89 1011.04 1011.71 1011.50 1011.41 1011.17 1010.05 1007.33 1006.38 1006.31 1006.61 1006.77 1006.34 1006.12 1005.75 1005.82 1005.97 1006.37 1006.93 1007.46 1008.01 1008.51 1009.12 1009.62 1010.47 1011.30 1012.11 1013.01 1013.98 1014.90 1015.91 1016.89 1017.74 1018.53 1019.30 1020.09 1020.82 1021.62
1014.15 1014.14 1013.98 1012.84 1012.27 1012.05 1012.26 1012.64 1013.17 1012.93 1012.99 1011.72 1010.87 1007.48 1006.23 1006.19 1006.50 1006.39 1006.48 1006.02 1005.87 1005.92 1006.26 1006.74 1007.25 1007.62 1008.16 1008.67 1009.05 1009.47 1009.99 1010.59 1011.40 1012.47 1013.42 1014.27 1015.11 1015.90 1016.95 1018.16 1019.03 1019.75 1020.55 1021.43
1014.38 1015.22 1014.81 1014.32 1013.77 1013.53 1013.11 1012.52 1013.25 1013.38 1012.93 1011.71 1010.63 1008.51 1007.02 1007.55 1007.24 1006.30 1005.53 1005.75 1005.66 1005.45 1005.95 1006.65 1007.03 1007.33 1007.80 1008.24 1008.71 1009.23 1009.99 1010.69 1011.43 1012.63 1013.63 1014.43 1015.08 1015.51 1016.52 1017.75 1018.60 1019.41 1020.10 1021.13
1015.27 1015.26 1015.33 1014.89 1014.57 1014.29 1013.99 1013.31 1012.78 1012.50 1012.00 1011.54 1009.70 1009.53 1007.16 1006.63 1006.15 1005.91 1005.42 1004.89 1004.77 1004.84 1005.25 1005.84 1006.23 1006.33 1006.87 1007.71 1008.29 1008.94 1009.80 1010.24 1011.05 1012.00 1013.31 1014.31 1015.58 1015.35 1016.47 1017.68 1018.50 1019.28 1020.20 1020.92
1016.05 1016.19 1016.14 1015.56 1014.85 1014.68 1014.22 1012.94 1011.71 1011.93 1011.10 1010.36 1009.62 1008.67 1007.08 1005.26 1005.20 1005.18 1004.76 1004.69 1004.26 1004.03 1004.15 1004.74 1005.15 1005.66 1006.01 1006.42 1007.22 1008.31 1008.91 1009.66 1010.80 1012.01 1013.15 1014.54 1015.93 1015.80 1016.58 1017.66 1018.53 1019.49 1020.28 1020.90
1016.94 1016.96 1017.15 1015.95 1015.36 1014.97 1013.76 1011.80 1011.38 1010.04 1009.54 1009.22 1008.37 1006.91 1006.01 1005.31 1004.47 1004.10 1004.09 1003.89 1003.59 1003.38 1003.19 1002.95 1003.55 1004.08 1004.65 1005.36 1006.25 1006.88 1008.65 1009.93 1010.56 1011.51 1012.81 1014.05 1015.65 1016.13 1017.01 1017.77 1019.07 1019.87 1020.46 1021.10
1016.74 1017.14 1017.47 1016.49 1015.22 1014.23 1011.50 1010.18 1009.52 1009.05 1008.29 1007.57 1007.17 1006.33 1005.65 1004.77 1003.75 1003.58 1003.15 1003.04 1002.99 1002.41 1002.14 1002.05 1001.96 1002.58 1003.27 1004.50 1005.54 1006.62 1007.78 1009.51 1010.85 1011.92 1012.48 1014.02 1015.34 1016.43 1017.39 1018.65 1019.33 1019.79 1020.59 1021.12
1015.78 1016.67 1017.15 1016.74 1014.87 1012.82 1011.42 1009.72 1009.15 1008.84 1008.22 1007.24 1006.51 1005.83 1005.11 1004.66 1004.45 1003.51 1002.95 1002.82 1002.55 1002.10 1001.71 1001.48 1000.85 1001.58 1002.77 1003.81 1004.98 1006.48 1007.67 1009.00 1010.23 1011.42 1012.70 1014.00 1015.31 1016.52 1017.54 1018.39 1018.96 1019.96 1020.89 1021.58
1015.44 1016.01 1016.73 1016.01 1014.88 1012.82 1010.73 1009.11 1008.58 1008.31 1007.54 1006.33 1005.92 1005.77 1005.66 1005.28 1005.03 1003.55 1003.06 1002.59 1002.30 1002.21 1001.82 1001.24 1000.95 1001.37 1002.30 1003.81 1004.96 1006.30 1007.92 1008.88 1010.46 1011.51 1012.56 1013.80 1015.39 1016.48 1017.55 1018.22 1018.90 1019.94 1020.90 1021.61
1015.75 1016.10 1016.02 1015.38 1014.39 1012.31 1010.01 1008.07 1008.22 1007.91 1006.53 1005.80 1005.75 1005.31 1005.60 1005.70 1004.92 1003.65 1003.24 1002.96 1003.45 1002.74 1002.44 1001.73 1001.36 1002.14 1003.12 1004.27 1005.36 1006.70 1008.26 1009.80 1010.81 1012.10 1013.18 1014.26 1015.10 1016.81 1017.86 1018.31 1018.83 1019.92 1020.72 1021.70
1014.87 1015.25 1014.97 1014.21 1013.29 1011.64 1008.59 1008.18 1008.15 1006.39 1005.55 1005.47 1005.53 1005.32 1005.06 1004.76 1004.08 1003.99 1003.63 1003.58 1003.30 1003.72 1003.99 1003.40 1003.63 1003.62 1004.43 1005.21 1005.51 1007.75 1008.97 1009.94 1011.11 1012.40 1013.54 1014.58 1015.63 1016.90 1017.71 1018.39 1019.28 1019.90 1020.91 1021.97
1013.82 1013.39 1013.19 1012.68 1010.73 1008.67 1007.73 1007.23 1006.72 1006.50 1006.29 1005.68 1005.25 1004.66 1004.42 1004.26 1004.08 1003.74 1003.99 1004.20 1004.50 1004.50 1004.63 1004.77 1004.90 1005.23 1005.43 1006.46 1007.28 1008.22 1009.51 1010.52 1011.62 1012.85 1013.96 1015.32 1016.25 1017.30 1018.14 1018.91 1019.58 1020.11 1021.21 1022.25
1012.60 1012.02 1012.24 1010.94 1008.46 1007.92 1007.09 1006.31 1005.95 1005.40 1005.18 1004.89 1004.65 1004.24 1004.00 1004.00 1003.89 1003.89 1004.16 1004.68 1005.07 1005.29 1005.21 1005.70 1005.93 1006.54 1006.88 1007.74 1008.54 1009.56 1010.49 1011.18 1012.26 1013.33 1014.83 1015.92 1016.68 1017.63 1018.44 1019.20 1019.76 1020.53 1021.42 1022.56
1011.30 1010.93 1010.25 1009.18 1006.95 1007.27 1005.90 1005.49 1005.13 1004.83 1004.54 1004.33 1004.08 1003.96 1003.83 1003.76 1003.66 1003.97 1004.57 1004.97 1005.47 1005.79 1006.06 1006.65 1007.30 1007.93 1008.27 1008.75 1009.59 1010.16 1010.77 1011.36 1012.76 1014.01 1015.23 1016.35 1017.15 1017.88 1018.93 1019.63 1020.24 1020.98 1021.82 1022.34
1009.55 1008.44 1009.07 1006.91 1006.17 1005.80 1005.18 1004.72 1004.63 1004.54 1004.30 1003.98 1003.78 1003.56 1003.45 1003.69 1003.73 1003.97 1004.73 1005.23 1005.74 1006.25 1006.56 1007.53 1008.48 1008.86 1009.03 1009.59 1009.89 1010.50 1011.40 1012.17 1013.20 1014.65 1015.78 1016.70 1017.57 1018.54 1019.36 1020.14 1021.34 1021.55 1022.05 1022.59
Thickness
5644 5626 5631 5642 5636 5634 5636 5633 5627 5649 5668 5656 5651 5648 5661 5674 5665 5663 5665 5667 5670 5676 5674 5668 5662 5656 5646 5639 5634 5631 5626 5620 5618 5611 5603 5597 5593 5588 5586 5584 5580 5577 5573 5569
5627 5621 5648 5642 5633 5624 5621 5620 5627 5641 5659 5639 5645 5645 5661 5666 5667 5673 5672 5669 5673 5669 5662 5656 5650 5647 5643 5637 5633 5626 5621 5614 5611 5607 5599 5593 5586 5580 5576 5573 5570 5567 5564 5559
5627 5633 5646 5635 5628 5618 5621 5613 5622 5621 5647 5640 5639 5644 5659 5669 5668 5675 5678 5680 5674 5671 5666 5658 5652 5646 5637 5633 5628 5620 5614 5608 5605 5600 5593 5584 5576 5570 5564 5560 5556 5553 5550 5547
5619 5637 5635 5626 5620 5621 5609 5627 5623 5622 5622 5615 5638 5624 5659 5666 5665 5667 5680 5680 5679 5676 5669 5661 5654 5645 5640 5631 5621 5616 5608 5603 5599 5594 5588 5582 5575 5568 5560 5555 5550 5545 5541 5535
5627 5629 5623 5617 5624 5623 5613 5629 5620 5619 5610 5610 5626 5602 5649 5666 5660 5670 5676 5677 5678 5679 5675 5669 5664 5655 5643 5629 5619 5609 5603 5598 5593 5588 5584 5576 5569 5562 5554 5546 5540 5535 5529 5524
5621 5625 5625 5619 5623 5621 5618 5607 5608 5607 5598 5601 5620 5616 5652 5660 5668 5677 5676 5676 5676 5674 5672 5664 5653 5643 5635 5623 5615 5607 5600 5593 5587 5582 5576 5572 5563 5553 5543 5533 5528 5522 5518 5512
5599 5605 5612 5609 5600 5609 5600 5587 5568 5572 5572 5603 5625 5622 5648 5657 5671 5676 5682 5674 5675 5670 5661 5658 5648 5641 5632 5623 5614 5604 5598 5589 5582 5575 5569 5564 5557 5549 5539 5530 5522 5514 5506 5499
5567 5577 5585 5590 5594 5594 5592 5588 5568 5560 5577 5597 5608 5607 5633 5655 5652 5663 5667 5666 5666 5662 5659 5654 5648 5639 5630 5620 5610 5604 5596 5586 5576 5568 5560 5554 5547 5540 5532 5523 5513 5504 5496 5489
5548 5560 5564 5572 5574 5580 5581 5571 5589 5569 5573 5564 5589 5620 5633 5649 5646 5635 5636 5641 5642 5642 5650 5651 5636 5629 5619 5610 5603 5599 5589 5579 5568 5559 5551 5544 5536 5530 5522 5512 5501 5493 5485 5478
5514 5514 5543 5551 5560 5569 5568 5570 5562 5550 5552 5554 5575 5586 5596 5597 5597 5604 5606 5614 5624 5627 5633 5633 5629 5620 5610 5601 5593 5585 5580 5571 5559 5548 5541 5534 5527 5520 5512 5500 5491 5482 5473 5466
5499 5495 5514 5530 5536 5537 5542 5538 5543 5550 5544 5548 5554 5570 5573 5574 5578 5577 5582 5590 5594 5604 5608 5606 5601 5598 5593 5588 5583 5575 5567 5558 5546 5541 5532 5522 5515 5510 5502 5491 5480 5470 5461 5453
5493 5482 5478 5501 5521 5526 5525 5527 5513 5522 5525 5506 5519 5552 5569 5567 5565 5565 5574 5577 5582 5584 5587 5584 5583 5578 5576 5573 5568 5564 5557 5549 5540 5534 5523 5515 5507 5498 5489 5480 5471 5461 5452 5443
5466 5461 5456 5480 5499 5503 5494 5487 5482 5480 5479 5499 5505 5543 5563 5564 5559 5561 5554 5559 5565 5570 5569 5564 5562 5563 5560 5557 5555 5551 5546 5540 5534 5524 5517 5508 5499 5492 5481 5469 5460 5450 5441 5431
5457 5438 5451 5448 5467 5474 5480 5491 5483 5474 5469 5488 5493 5513 5547 5533 5534 5546 5553 5549 5551 5559 5552 5546 5547 5548 5546 5546 5544 5540 5534 5527 5520 5510 5502 5495 5488 5482 5472 5459 5449 5439 5431 5420
5429 5421 5436 5445 5443 5446 5450 5460 5471 5468 5473 5463 5499 5481 5515 5529 5532 5531 5540 5545 5548 5551 5542 5537 5539 5540 5538 5532 5531 5528 5521 5517 5509 5501 5489 5481 5467 5467 5456 5445 5436 5427 5418 5409
5412 5392 5407 5415 5432 5422 5421 5448 5467 5458 5465 5468 5473 5470 5513 5529 5528 5524 5528 5526 5538 5545 5546 5534 5533 5533 5533 5530 5525 5517 5513 5507 5497 5487 5476 5464 5451 5450 5444 5432 5422 5412 5402 5395
5390 5376 5363 5390 5419 5402 5398 5444 5443 5462 5471 5469 5459 5486 5505 5510 5520 5523 5512 5519 5527 5530 5535 5541 5536 5533 5529 5525 5518 5515 5500 5490 5485 5478 5466 5455 5441 5435 5426 5418 5406 5394 5387 5380
5380 5377 5354 5374 5398 5339 5429 5449 5460 5452 5461 5470 5471 5485 5494 5502 5515 5508 5518 5515 5512 5525 5528 5530 5531 5529 5526 5513 5505 5500 5492 5477 5466 5458 5454 5441 5430 5421 5412 5398 5389 5382 5373 5368
5380 5358 5329 5341 5378 5395 5415 5442 5446 5432 5434 5459 5459 5470 5480 5484 5479 5493 5509 5498 5506 5510 5510 5517 5526 5519 5511 5504 5495 5485 5478 5468 5457 5450 5440 5430 5420 5409 5398 5386 5379 5370 5361 5354
5371 5368 5358 5342 5347 5362 5418 5442 5430 5424 5404 5449 5447 5447 5446 5451 5440 5477 5484 5485 5485 5489 5493 5504 5508 5504 5501 5489 5481 5473 5462 5456 5445 5437 5428 5418 5408 5396 5382 5374 5369 5361 5352 5344
5348 5333 5342 5347 5340 5356 5406 5435 5420 5398 5423 5441 5439 5442 5436 5435 5440 5464 5467 5469 5460 5470 5474 5485 5489 5486 5481 5473 5464 5458 5449 5435 5426 5418 5410 5402 5394 5380 5370 5366 5360 5350 5342 5332
5329 5315 5320 5329 5299 5328 5411 5407 5396 5421 5429 5434 5435 5436 5436 5442 5450 5451 5453 5450 5455 5452 5449 5456 5458 5460 5456 5453 5454 5439 5428 5421 5414 5404 5396 5385 5377 5368 5363 5355 5347 5341 5330 5318
5319 5336 5331 5337 5359 5388 5400 5397 5403 5405 5409 5419 5425 5435 5432 5434 5442 5447 5439 5437 5436 5437 5435 5436 5438 5438 5441 5435 5430 5424 5413 5406 5397 5388 5380 5371 5364 5355 5349 5341 5334 5329 5316 5303
5341 5350 5327 5350 5384 5389 5398 5405 5406 5411 5411 5413 5418 5426 5428 5427 5435 5433 5429 5423 5422 5422 5424 5423 5422 5419 5419 5414 5409 5402 5396 5391 5385 5377 5365 5357 5351 5343 5337 5330 5324 5313 5302 5288
5333 5338 5345 5353 5385 5384 5396 5401 5405 5407 5408 5410 5413 5417 5420 5422 5426 5422 5414 5413 5411 5411 5411 5409 5402 5396 5397 5396 5392 5388 5385 5382 5372 5362 5354 5346 5340 5333 5323 5317 5309 5299 5287 5282
5347 5353 5343 5363 5384 5383 5393 5396 5398 5399 5402 5407 5412 5415 5414 5412 5414 5409 5405 5402 5402 5400 5399 5393 5384 5383 5385 5381 5380 5376 5371 5366 5360 5350 5343 5335 5327 5318 5311 5302 5288 5285 5277 5269